St. James, MN

1:14 AM CST on November 14, 2019 (GMT -0600)
Saint James Municipal

Weather History for KJYG - June, 2019

Change the Weather History Date:

Wednesday, June 12, 2019

  Actual Average Record
Temperature  
Mean Temperature 62 °F -  
Max Temperature 71 °F 81 °F 95 °F (1988)
Min Temperature 53 °F 58 °F 44 °F (1958)
Degree Days  
Heating Degree Days 3    
Growing Degree Days 12 (Base 50)    
Moisture  
Dew Point 43 °F    
Average Humidity 49    
Maximum Humidity 94    
Minimum Humidity 27    
Precipitation  
Precipitation 0.00 in - - ()
Sea Level Pressure  
Sea Level Pressure 30.01 in    
Wind  
Wind Speed 14 mph (NNW)    
Max Wind Speed 28 mph    
Max Gust Speed 37 mph    
Visibility 10 miles    
Events Rain    
Averages and records for this station are not official NWS values.
T = Trace of Precipitation, MM = Missing Value Source: NWS Daily Summary

Daily Weather History Graph

Daily Weather History Graph

Search for Another Location

Airport or City:

Astronomy

Jun. 12, 2019 Rise Set
Actual Time 5:35 AM CDT 9:01 PM CDT
Civil Twilight 4:58 AM CDT 9:37 PM CDT
Nautical Twilight 4:11 AM CDT 10:25 PM CDT
Astronomical Twilight 3:11 AM CDT 11:25 PM CDT
Moon 3:58 PM CDT (6/12) 3:02 AM CDT (6/12)
Length of Visible Light 16h 38m
Length of Day
15h 26m
Waxing Gibbous, 77% of the Moon is Illuminated
Jun 12
Waxing Gibbous
Jun 17
Full
Jun 25
Last Quarter
Jul 2
New
Jul 9
First Quarter

Hourly Weather History & Observations

Time (CDT) Temp. Dew Point Humidity Pressure Visibility Wind Dir Wind Speed Gust Speed Precip Events Conditions
12:04 AM 60.8 °F 57.2 °F 88% 29.97 in 7.0 mi Calm Calm - N/A Rain Light Rain
12:19 AM 59.0 °F 57.2 °F 94% 29.96 in 10.0 mi ENE 3.5 mph - N/A Rain Light Rain
12:20 AM 59.0 °F 57.2 °F 94% 29.96 in 10.0 mi ENE 3.5 mph - N/A Rain Light Rain
8:10 AM 57.2 °F 53.6 °F 88% 30.00 in 10.0 mi NW 11.5 mph - N/A   Scattered Clouds
8:15 AM 57.2 °F 53.6 °F 88% 30.00 in 10.0 mi NW 12.7 mph - N/A   Scattered Clouds
8:16 AM 57.2 °F 53.6 °F 88% 30.00 in 10.0 mi NW 12.7 mph - N/A   Scattered Clouds
8:43 AM 60.8 °F 55.4 °F 82% 30.01 in 10.0 mi NNW 15.0 mph - N/A   Clear
8:58 AM 60.8 °F 55.4 °F 82% 30.02 in 10.0 mi NNW 15.0 mph - N/A   Scattered Clouds
9:15 AM 62.6 °F 55.4 °F 77% 30.02 in 10.0 mi NNW 13.8 mph - N/A   Scattered Clouds
9:44 AM 62.6 °F 53.6 °F 72% 30.02 in 10.0 mi NNW 17.3 mph 23.0 mph N/A   Scattered Clouds
9:59 AM 64.4 °F 53.6 °F 68% 30.02 in 10.0 mi NW 19.6 mph 24.2 mph N/A   Scattered Clouds
10:15 AM 64.4 °F 55.4 °F 73% 30.02 in 10.0 mi NW 19.6 mph - N/A   Scattered Clouds
10:34 AM 64.4 °F 53.6 °F 68% 30.03 in 10.0 mi NW 17.3 mph 23.0 mph N/A   Scattered Clouds
10:46 AM 64.4 °F 51.8 °F 64% 30.03 in 10.0 mi NNW 21.9 mph - N/A   Scattered Clouds
11:01 AM 64.4 °F 48.2 °F 56% 30.03 in 10.0 mi NNW 21.9 mph 26.5 mph N/A   Clear
11:16 AM 64.4 °F 48.2 °F 56% 30.02 in 10.0 mi NW 21.9 mph 26.5 mph N/A   Clear
11:35 AM 66.2 °F 44.6 °F 46% 30.03 in 10.0 mi NNW 20.7 mph 24.2 mph N/A   Clear
12:03 PM 66.2 °F 44.6 °F 46% 30.03 in 10.0 mi NNW 20.7 mph 27.6 mph N/A   Clear
12:18 PM 66.2 °F 44.6 °F 46% 30.02 in 10.0 mi NNW 21.9 mph 27.6 mph N/A   Clear
12:35 PM 68.0 °F 42.8 °F 40% 30.02 in 10.0 mi NW 25.3 mph 29.9 mph N/A   Clear
1:04 PM 69.8 °F 39.2 °F 33% 30.02 in 10.0 mi North 23.0 mph 31.1 mph N/A   Clear
1:19 PM 69.8 °F 39.2 °F 33% 30.02 in 10.0 mi NNW 21.9 mph 27.6 mph N/A   Clear
1:35 PM 69.8 °F 37.4 °F 31% 30.02 in 10.0 mi NW 24.2 mph 32.2 mph N/A   Clear
1:36 PM 69.8 °F 37.4 °F 31% 30.01 in 10.0 mi NW 24.2 mph 32.2 mph N/A   Clear
1:54 PM 69.8 °F 37.4 °F 31% 30.02 in 10.0 mi NNW 25.3 mph 34.5 mph N/A   Clear
2:06 PM 69.8 °F 37.4 °F 31% 30.01 in 7.0 mi NNW 27.6 mph 36.8 mph N/A   Clear
2:21 PM 69.8 °F 39.2 °F 33% 30.01 in 10.0 mi NNW 24.2 mph 29.9 mph N/A   Clear
2:36 PM 71.6 °F 39.2 °F 31% 30.01 in 10.0 mi North 21.9 mph 29.9 mph N/A   Clear
2:55 PM 71.6 °F 39.2 °F 31% 30.01 in 10.0 mi NNW 20.7 mph 32.2 mph N/A   Clear
2:56 PM 71.6 °F 39.2 °F 31% 30.00 in 10.0 mi NW 23.0 mph 32.2 mph N/A   Clear
3:22 PM 71.6 °F 39.2 °F 31% 30.00 in 10.0 mi NW 20.7 mph 31.1 mph N/A   Clear
3:38 PM 71.6 °F 37.4 °F 29% 30.00 in 10.0 mi North 20.7 mph 31.1 mph N/A   Clear
3:55 PM 71.6 °F 35.6 °F 27% 30.00 in 10.0 mi NW 21.9 mph 32.2 mph N/A   Clear
4:24 PM 71.6 °F 37.4 °F 29% 29.99 in 10.0 mi NNW 23.0 mph 28.8 mph N/A   Clear
4:39 PM 71.6 °F 37.4 °F 29% 29.99 in 10.0 mi NNW 25.3 mph 32.2 mph N/A   Clear
4:55 PM 71.6 °F 37.4 °F 29% 29.99 in 10.0 mi NNW 23.0 mph 32.2 mph N/A   Clear
4:56 PM 71.6 °F 37.4 °F 29% 29.99 in 10.0 mi NNW 25.3 mph 32.2 mph N/A   Clear
5:25 PM 71.6 °F 37.4 °F 29% 29.99 in 10.0 mi NNW 25.3 mph 33.4 mph N/A   Clear
5:41 PM 69.8 °F 37.4 °F 31% 29.99 in 10.0 mi North 24.2 mph 31.1 mph N/A   Clear
5:56 PM 69.8 °F 37.4 °F 31% 29.99 in 10.0 mi North 23.0 mph 29.9 mph N/A   Clear
6:15 PM 69.8 °F 37.4 °F 31% 29.99 in 10.0 mi NNW 19.6 mph 26.5 mph N/A   Clear
6:42 PM 69.8 °F 37.4 °F 31% 29.99 in 10.0 mi NNW 23.0 mph 28.8 mph N/A   Clear
6:57 PM 69.8 °F 37.4 °F 31% 29.99 in 10.0 mi NNW 17.3 mph 26.5 mph N/A   Clear
7:15 PM 69.8 °F 37.4 °F 31% 30.00 in 10.0 mi NNW 16.1 mph 23.0 mph N/A   Clear
7:44 PM 68.0 °F 37.4 °F 33% 30.00 in 10.0 mi North 17.3 mph 20.7 mph N/A   Clear
7:59 PM 66.2 °F 37.4 °F 35% 30.01 in 10.0 mi North 17.3 mph 25.3 mph N/A   Clear
8:15 PM 66.2 °F 37.4 °F 35% 30.01 in 10.0 mi North 16.1 mph 21.9 mph N/A   Clear
8:45 PM 64.4 °F 35.6 °F 34% 30.01 in 10.0 mi North 12.7 mph - N/A   Clear
9:00 PM 62.6 °F 37.4 °F 39% 30.02 in 10.0 mi North 11.5 mph - N/A   Clear
9:16 PM 62.6 °F 37.4 °F 39% 30.02 in 10.0 mi North 10.4 mph - N/A   Clear
9:35 PM 60.8 °F 39.2 °F 45% 30.03 in 10.0 mi North 6.9 mph - N/A   Clear
10:02 PM 60.8 °F 39.2 °F 45% 30.04 in 10.0 mi North 8.1 mph - N/A   Clear
10:17 PM 57.2 °F 39.2 °F 51% 30.05 in 10.0 mi North 6.9 mph - N/A   Clear
10:35 PM 55.4 °F 42.8 °F 63% 30.05 in 10.0 mi NW 6.9 mph - N/A   Clear
10:36 PM 55.4 °F 42.8 °F 63% 30.05 in 10.0 mi NW 8.1 mph - N/A   Clear
11:03 PM 53.6 °F 42.8 °F 67% 30.05 in 10.0 mi NNW 4.6 mph - N/A   Clear
11:19 PM 53.6 °F 42.8 °F 67% 30.05 in - NNW 5.8 mph - N/A   Clear
11:35 PM 53.6 °F 42.8 °F 67% 30.05 in 10.0 mi NW 4.6 mph - N/A   Clear